875  
ASUS44 KMEG 142210  
RWRMEG  
MEMPHIS CWA HOURLY WEATHER ROUNDUP  
NATIONAL WEATHER SERVICE MEMPHIS TN  
500 PM CDT TUE JUL 14 2020  
   
..WEST TENNESSEE
 
 
 
CITY SKY/WX TMP DP RH WIND PRES REMARKS
 
MEMPHIS INTL MOSUNNY 92 70 48 SW9 29.97R HX 97  
NWS MEMPHIS N/A 94 N/A N/A MISG N/A  
JACKSON MOSUNNY 91 63 39 S5 29.99S HX 92  
COVINGTON SUNNY 90 70 51 SE6 29.97S HX 95  
BOLIVAR SUNNY 90 66 45 E3 29.98S HX 92  
LEXINGTON SUNNY 90 68 48 CALM 29.99S HX 93  
SELMER SUNNY 90 66 45 VRB5 29.99S HX 92  
DYERSBURG SUNNY 92 70 48 SE6 29.99S HX 97  
PARIS MOSUNNY 88 64 45 CALM 30.00  
HUNTINGDON SUNNY 90 68 48 VRB5 29.99S HX 93  
 
   
..EASTERN ARKANSAS
 
 
 
CITY SKY/WX TMP DP RH WIND PRES REMARKS
 
JONESBORO SUNNY 92 70 48 S9 29.95F HX 97  
WEST MEMPHIS SUNNY 93 69 45 VRB5 29.95S HX 98  
BATESVILLE MOSUNNY 90 74 59 SE12 29.96S HX 99  
NEWPORT SUNNY 91 75 59 S8 29.95F HX 101  
WALNUT RIDGE MOSUNNY 92 73 53 SE9 29.94F HX 100  
BLYTHEVILLE SUNNY 93 63 36 SE8 29.96F HX 94  
SEARCY CLOUDY 93 79 63 S7 29.95S HX 110  
STUTTGART MOSUNNY 93 78 61 SE8 29.95R HX 108  
PINE BLUFF PTSUNNY 92 78 63 E12 29.93S HX 107  
MONTICELLO CLOUDY 82 71 69 SE8 29.96S  
 
   
..NORTH MISSISSIPPI
 
 
 
CITY SKY/WX TMP DP RH WIND PRES REMARKS
 
TUPELO MOSUNNY 93 67 42 SE3 29.97F HX 96  
OXFORD MOSUNNY 93 68 43 W5 29.99S HX 97  
BATESVILLE SUNNY 93 72 49 CALM 29.97R HX 100  
TUNICA MOSUNNY 90 72 55 S7 29.97R HX 96  
CLARKSDALE N/A 93 75 55 CALM 29.97R HX 104  
CORINTH MOSUNNY 91 64 40 CALM 29.98S HX 93  
GREENWOOD MOSUNNY 93 75 55 VRB3 29.97R HX 104  
COLUMBUS SUNNY 91 69 48 CALM 29.97S HX 96  
STARKVILLE MOSUNNY 90 68 48 CALM 29.99R HX 93  
GOLDEN TRIANGL MOSUNNY 93 74 53 CALM 29.98S HX 103  
 
   
..SOUTHEAST MISSOURI
 
 
 
CITY SKY/WX TMP DP RH WIND PRES REMARKS
 
KENNETT SUNNY 95 66 38 E8 29.95F HX 98  
MALDEN SUNNY 91 64 40 SE8 29.98S HX 93  
WEST PLAINS MOSUNNY 90 72 55 SE10G20 29.99S HX 97  
POPLAR BLUFF SUNNY 91 64 40 SE9 29.96F HX 92  
CAPE GIRARDEAU SUNNY 90 63 40 SE7 29.97F HX 91  
 
   
..NORTHWEST ALABAMA
 
 
 
CITY SKY/WX TMP DP RH WIND PRES REMARKS
 
 
   
..MIDDLE TENNESSEE
 
 
 
CITY SKY/WX TMP DP RH WIND PRES REMARKS
 
NASHVILLE MOSUNNY 91 63 39 E5 30.01S HX 92  
CLARKSVILLE SUNNY 89 63 41 CALM 30.01S HX 90  
DICKSON MOSUNNY 82 75 78 CALM 30.02R  
COLUMBIA SUNNY 90 61 37 CALM 29.99S  
LAWRENCEBURG SUNNY 86 66 51 E6 30.01S  
LEWISBURG MOSUNNY 90 61 37 VRB3 30.00S  
 
   
..WESTERN KENTUCKY
 
 
 
CITY SKY/WX TMP DP RH WIND PRES REMARKS
 
PADUCAH SUNNY 90 64 42 E3 29.99F HX 91  
FORT CAMPBELL MOSUNNY 88 62 41 W5 30.01S  
 
   
..CENTRAL ARKANSAS
 
 
 
CITY SKY/WX TMP DP RH WIND PRES REMARKS
 
LITTLE ROCK MOSUNNY 92 77 61 SE10 29.93R HX 105  
 
SKY/WX REPORTED AS FAIR MEANS FEW OR NO CLOUDS BELOW  
12 THOUSAND FEET.  
 
 
 
CLICK HERE TO GO TO PREVIOUS BULLETINS.

The Nexlab TN Page
The Nexlab MS Page
The Nexlab AR Page Main Text Page